(518843) = 2010 CC240

Discovered at Kitt Peak on 2009-10-27 by Spacewatch.

Orbit

Orbit type: Main Belt

Note: WebGL enabled browser required.

epoch2023-09-13.0
epoch JD2460200.5
perihelion date2020-09-09.97443
perihelion JD2459102.47443
argument of perihelion (°)308.63783
ascending node (°)208.37758
inclination (°)3.79481
eccentricity0.0097632
perihelion distance (AU)2.7941276
Tisserand w.r.t. Jupiter3.3
ΔV w.r.t. Earth (km/sec)10.4
semimajor axis (AU)2.8216763
mean anomaly (°)228.32608
mean daily motion (°/day)0.20794240
aphelion distance (AU)2.849
period (years)4.74
P-vector [x]-0.91979593
P-vector [y]0.37744286
P-vector [z]0.10729550
Q-vector [x]-0.39113422
Q-vector [y]-0.85997596
Q-vector [z]-0.32780384
absolute magnitude17.16
phase slope0.15
uncertainty0
referenceMPO 780415
observations used137
oppositions14
arc length (days)6976
first opposition used2004
last opposition used2023
residual rms (arc-secs)0.72
perturbers coarse indicatorM-v
perturbers precise indicator003Ek
first observation date used2004-10-05.0
last observation date used2023-11-11.0
computer nameMPCLINUX
Minimum Orbit Intersection Distances (in AU)
for orbit epoch: 2460200.5, reference: E2023-VL1
Mercury2.35703
Venus2.08001
Earth1.79821
Mars1.14157
Jupiter2.11254
Saturn6.24293
Uranus15.6574
Neptune27.0005

Observations

142 total observations over interval: 2004 10 05.25378 – 2023 11 11.312392
These data are available for download (format description).

